Location: Ellingshausen
(50.5460°N, 10.4723°E)
Time: 13:05:25
(UTC+00:00)

Cosmos 676 Rocket - Pass Details

Date: 12 April 2026
Orbit: 750 x 779 km, 74.0° (Epoch: 19 May)

Event Time Altitude Azimuth Distance (km) Brightness Sun altitude
Rises 22:27:34 0° 340° (NNW) 3,273 8.5 -29.5°
Reaches altitude 10° 22:30:28 10° 355° (N) 2,339 7.4 -29.6°
Maximum altitude 22:34:40 23° 48° (NE) 1,601 5.9 -29.7°
Enters shadow 22:35:48 22° 67° (ENE) 1,663 5.8 -29.8°
